Flag for Canada Weather past 2 weeks in Halton Hills, Ontario, Canada

Now
41 °F

Partly sunny.


Feels Like: 33 °F
Forecast: 35 / 53 °F
Wind: 14 mph from North

Location: Toronto Pearson International Airport

Current Time: Oct 22, 2014 at 11:01:15 AM

Latest Report: Oct 22, 2014 at 10:00 AM


Visibility: 15 mi

Pressure: 30.29 "Hg

Humidity: 81%

Dew point: 36 °F

Location of Halton HillsLocation

Historic Weather in Halton Hills — Graph

°F

Halton Hills temperature yesterday

Maximum temperature yesterday: 52 °F (at 12:00 AM)
Minimum temperature yesterday: 43 °F (at 8:00 PM)
Average temperature yesterday: 48 °F

Past Weeks' High & Low Weather Summary

 TemperatureHumidityPressure
High72 °F (Oct 14, 4:00 PM)100% (Oct 7, 9:00 PM)30.30 "Hg (Oct 7, 9:00 PM)
Low36 °F (Oct 12, 4:00 AM)38% (Oct 11, 2:51 PM)29.48 "Hg (Oct 17, 10:00 PM)
Average52 °F78%29.91 "Hg
* Reported Oct 7 10:00 AM — Oct 22 10:00 AM, Halton Hills, Weather by CustomWeather, © 2014

Note: Actual official high and low records may vary slightly from our data, if they occured in-between our weather recording intervals... More about our weather records

Advertising

Halton Hills weather history for previous 24 hours

 ConditionsComfort  
Time TempWeatherWind HumidityBarometerVisibility
10:00 AM
Oct 22
41 °FPartly sunny.14 mph81%30.29 "Hg15 mi
9:00 AM39 °FPassing clouds.15 mph81%30.28 "Hg15 mi
8:00 AM37 °FPassing clouds.15 mph87%30.27 "Hg15 mi
7:00 AM37 °FPassing clouds.14 mph87%30.24 "Hg15 mi
6:00 AM39 °FPassing clouds.14 mph81%30.24 "Hg15 mi
5:00 AM39 °FPassing clouds.14 mph81%30.22 "Hg15 mi
4:00 AM41 °FOvercast.14 mph81%30.21 "Hg15 mi
3:00 AM43 °FMostly cloudy.14 mph71%30.20 "Hg15 mi
2:00 AM43 °FOvercast.14 mph76%30.18 "Hg15 mi
1:00 AM43 °FOvercast.13 mph76%30.18 "Hg15 mi
12:00 AM43 °FSprinkles. Mostly cloudy.15 mph81%30.18 "Hg15 mi
11:00 PM
Oct 21
43 °FSprinkles. Mostly cloudy.14 mph87%30.17 "Hg15 mi
10:48 PM43 °FMostly cloudy.17 mph87%30.17 "Hg15 mi
10:00 PM43 °FOvercast.20 mph87%30.15 "Hg15 mi
9:00 PM43 °FSprinkles. Overcast.15 mph93%30.13 "Hg15 mi
8:00 PM43 °FSprinkles. Overcast.20 mph93%30.10 "Hg6 mi
7:00 PM45 °FSprinkles. Overcast.16 mph87%30.08 "Hg15 mi
6:00 PM46 °FOvercast.14 mph87%30.04 "Hg15 mi
5:46 PM46 °FOvercast.18 mph87%30.03 "Hg15 mi
5:00 PM46 °FSprinkles. Fog.13 mph87%30.01 "Hg6 mi
4:00 PM46 °FSprinkles. Fog.17 mph87%29.99 "Hg4 mi
3:00 PM48 °FMostly cloudy.16 mph82%29.96 "Hg15 mi
2:00 PM46 °FOvercast.16 mph87%29.94 "Hg15 mi
1:00 PM46 °FLow clouds.17 mph93%29.93 "Hg12 mi
12:00 PM48 °FSprinkles. More clouds than sun.16 mph94%29.90 "Hg12 mi
11:00 AM52 °FSprinkles. Fog.14 mph88%29.88 "Hg6 mi
Weather by CustomWeather, © 2014

See weather overviewHow to use our weather pages